La Ceiba, Honduras

8:18 PM CST on August 21, 2017 (GMT -0600)
Goloson International

Weather History for MHLC - November, 2012

Change the Weather History Date:

Tuesday, November 13, 2012

  Actual Average Record
Temperature  
Mean Temperature 75 °F -  
Max Temperature 82 °F 80 °F 91 °F (1997)
Min Temperature 68 °F 67 °F 66 °F (2001)
Cooling Degree Days 10    
Growing Degree Days 25 (Base 50)    
Moisture  
Dew Point 69 °F    
Average Humidity 84    
Maximum Humidity 94    
Minimum Humidity 64    
Precipitation  
Precipitation 0.47 in 0.67 in - ()
Sea Level Pressure  
Sea Level Pressure 30.00 in    
Wind  
Wind Speed 4 mph ()    
Max Wind Speed 12 mph    
Max Gust Speed -    
Visibility 6.3 miles    
Events Rain    
Averages and records for this station are not official NWS values.
T = Trace of Precipitation, MM = Missing Value Source: Averaged Metar Reports

Daily Weather History Graph

Daily Weather History Graph

Search for Another Location

Airport or City:

Trip Planner

Search our weather history database for the weather conditions in past years. The results will help you decide how hot, cold, wet, or windy it might be!

Date:

Astronomy

Nov. 13, 2012 Rise Set
Actual Time 5:49 AM CST 5:14 PM CST
Civil Twilight 5:26 AM CST 5:36 PM CST
Nautical Twilight 5:00 AM CST 6:02 PM CST
Astronomical Twilight 4:34 AM CST 6:28 PM CST
Moon 5:25 AM CST (11/13) 5:10 PM CST (11/13)
Length of Visible Light 12h 10m
Length of Day
11h 24m
Waning Crescent, 0% of the Moon is Illuminated
Nov 13
Waning Crescent
Nov 13
New
Nov 20
First Quarter
Nov 28
Full
Dec 6
Last Quarter

Hourly Weather History & Observations

Time (CST) Temp. Heat Index Dew Point Humidity Pressure Visibility Wind Dir Wind Speed Gust Speed Precip Events Conditions
12:00 AM 74 °F - 69 °F 81% 29.99 in 6 mi ENE 5.8 mph - -   Haze
12:00 AM 73.4 °F - 69.8 °F 88% 29.98 in 6.2 mi ENE 5.8 mph - N/A   Scattered Clouds
6:00 AM 71 °F - 69 °F 93% 29.99 in 2 mi SSE 5.8 mph - - Rain Rain
9:00 AM 76 °F - 72 °F 85% 30.04 in 12 mi SW 3.5 mph - - Rain Light Rain
9:00 AM 77.0 °F - 71.6 °F 83% 30.04 in 6.2 mi SW 3.5 mph - N/A   Scattered Clouds
10:00 AM 80.6 °F 85.4 °F 73.4 °F 79% 30.04 in 6.2 mi NNE 3.5 mph - N/A   Scattered Clouds
11:00 AM 73.4 °F - 69.8 °F 88% 30.04 in 1.9 mi NE 9.2 mph - N/A Rain Light Rain
12:00 PM 72 °F - 68 °F 85% 30.03 in 2 mi ESE 11.5 mph - - Rain Light Rain
12:00 PM 71.6 °F - 68.0 °F 88% 30.01 in 2.5 mi ESE 11.5 mph - N/A Rain Light Rain
1:00 PM 75.2 °F - 66.2 °F 73% 29.98 in 6.2 mi SE 10.4 mph - N/A   Mostly Cloudy
2:00 PM 78.8 °F - 66.2 °F 65% 29.95 in 6.2 mi SE 4.6 mph - N/A   Mostly Cloudy
3:00 PM 79 °F - 69 °F 64% 29.94 in 12 mi Calm Calm - -   Haze
3:00 PM 78.8 °F - 69.8 °F 74% 29.92 in 6.2 mi Calm Calm - N/A   Mostly Cloudy
4:00 PM 78.8 °F - 71.6 °F 78% 29.95 in 6.2 mi SE 2.3 mph - N/A   Mostly Cloudy
5:00 PM 77.0 °F - 71.6 °F 83% 29.95 in 6.2 mi Calm Calm - N/A   Scattered Clouds
6:00 PM 74 °F - 70 °F 84% 29.98 in 9 mi SSE 2.3 mph - -   Haze
6:00 PM 73.4 °F - 69.8 °F 88% 29.98 in 6.2 mi SSE 2.3 mph - N/A   Scattered Clouds
7:00 PM 71.6 °F - 68.0 °F 88% 29.98 in 6.2 mi Calm Calm - N/A   Scattered Clouds
8:00 PM 71.6 °F - 68.0 °F 88% 30.01 in 6.2 mi Calm Calm - N/A   Mostly Cloudy
9:00 PM 71 °F - 67 °F 85% 30.04 in 11 mi Calm Calm - -   Haze
9:00 PM 69.8 °F - 68.0 °F 94% 30.04 in 6.2 mi Calm Calm - N/A   Scattered Clouds
10:00 PM 68.0 °F - 66.2 °F 94% 30.04 in 6.2 mi SSE 2.3 mph - N/A   Partly Cloudy
11:00 PM 68.0 °F - 66.2 °F 94% 30.01 in 6.2 mi Calm Calm - N/A   Partly Cloudy